Diretta Meteo Shanghai-Hongqiao, Cinamercoledì 22 maggio ore 17:30

Mappa
Sereno 29 °C Sereno 24 Ore: T.min 18 T.max 31
Ponente Sud Km/h 18 Punto di rugiada: 10 °C Umidità: 30% Visibilità: 10 Km
Il sole sorge alle: 04:53 Il sole tramonta alle: 18:48
22 Maggio 2019 17:30 tempo osservato: Sereno Sereno 29 30 1007 vento: Nord S 18
22 Maggio 2019 17:00 tempo osservato: Sereno Sereno 30 27 1007 vento: Nord N 10.8
22 Maggio 2019 16:30 tempo osservato: Sereno Sereno 30 27 1007 vento: Nord SO 10.8
22 Maggio 2019 16:00 tempo osservato: Sereno Sereno 31 23 1007 vento: Nord N 14.4
22 Maggio 2019 15:30 tempo osservato: Sereno Sereno 31 22 1007 vento: Nord O/SO 10.8
22 Maggio 2019 15:00 tempo osservato: Sereno Sereno 31 23 1007 vento: Nord N 14.4
22 Maggio 2019 14:30 tempo osservato: Sereno Sereno 30 25 1007 vento: Nord N 10.8
22 Maggio 2019 14:00 tempo osservato: Sereno Sereno 31 22 1008 vento: Nord O/NO 18
22 Maggio 2019 13:30 tempo osservato: Sereno Sereno 31 23 1008 vento: Nord O 14.4
22 Maggio 2019 13:00 tempo osservato: Sereno Sereno 31 23 1008 vento: Nord O/SO 14.4
22 Maggio 2019 12:30 tempo osservato: Sereno Sereno 31 23 1008 vento: Nord N 10.8
22 Maggio 2019 12:00 tempo osservato: Sereno Sereno 30 23 1009 vento: Nord N 10.8
22 Maggio 2019 11:30 tempo osservato: Sereno Sereno 30 25 1009 vento: Nord N 18
22 Maggio 2019 11:00 tempo osservato: Sereno Sereno 30 25 1009 vento: Nord O 10.8
22 Maggio 2019 10:30 tempo osservato: Sereno Sereno 29 26 1010 vento: Nord O 10.8
22 Maggio 2019 10:00 tempo osservato: Sereno Sereno 28 28 1010 vento: Nord N 10.8
22 Maggio 2019 09:30 tempo osservato: Sereno Sereno 28 30 1010 vento: Nord N 3.6
22 Maggio 2019 09:00 tempo osservato: Sereno Sereno 27 36 1010 vento: Nord N 7.2
22 Maggio 2019 08:30 tempo osservato: Sereno Sereno 26 39 1010 vento: Nord N 7.2
22 Maggio 2019 08:00 tempo osservato: Sereno Sereno 24 47 1010 vento: Nord N 7.2
22 Maggio 2019 07:30 tempo osservato: Sereno Sereno 23 53 1010 vento: Nord N 7.2
22 Maggio 2019 07:00 tempo osservato: Sereno Sereno 22 60 1010 vento: Nord N 3.6
22 Maggio 2019 06:30 tempo osservato: Sereno Sereno 21 64 1010 vento: Nord N 3.6
22 Maggio 2019 06:00 tempo osservato: Sereno Sereno 19 68 1010 vento: Nord N 3.6
22 Maggio 2019 05:30 tempo osservato: Sereno Sereno 19 68 1010 vento: Nord N 3.6
22 Maggio 2019 05:00 tempo osservato: Sereno Sereno 19 68 1010 vento: Nord N 3.6
22 Maggio 2019 04:30 tempo osservato: Sereno Sereno 19 63 1010 vento: Nord N 3.6
22 Maggio 2019 04:00 tempo osservato: Sereno Sereno 18 67 1010 vento: Nord N 7.2
22 Maggio 2019 03:30 tempo osservato: Sereno Sereno 19 59 1009 vento: Nord N 3.6
22 Maggio 2019 03:00 tempo osservato: Sereno Sereno 20 56 1010 vento: Nord N 3.6
22 Maggio 2019 02:30 tempo osservato: Sereno Sereno 20 56 1009 vento: Nord N 7.2
22 Maggio 2019 02:00 tempo osservato: Sereno Sereno 20 56 1009 vento: Nord N 7.2
22 Maggio 2019 01:30 tempo osservato: Sereno Sereno 21 52 1010 vento: Nord S 10.8
22 Maggio 2019 01:00 tempo osservato: Sereno Sereno 21 52 1010 vento: Nord S 10.8
22 Maggio 2019 00:30 tempo osservato: Sereno Sereno 21 49 1010 vento: Nord N 7.2
22 Maggio 2019 00:00 tempo osservato: Sereno Sereno 21 49 1010 vento: Nord S 10.8
21 Maggio 2019 23:30 tempo osservato: Sereno Sereno 21 49 1010 vento: Nord S 10.8
21 Maggio 2019 23:00 tempo osservato: Sereno Sereno 22 43 1010 vento: Nord S 14.4
21 Maggio 2019 22:30 tempo osservato: Sereno Sereno 22 40 1010 vento: Nord S 10.8
21 Maggio 2019 22:00 tempo osservato: Sereno Sereno 22 37 1010 vento: Nord S/SO 10.8
21 Maggio 2019 21:30 tempo osservato: Sereno Sereno 22 37 1010 vento: Nord S 14.4
21 Maggio 2019 21:00 tempo osservato: Sereno Sereno 23 35 1010 vento: Nord S 14.4
21 Maggio 2019 20:30 tempo osservato: Sereno Sereno 23 33 1010 vento: Nord S 10.8
21 Maggio 2019 20:00 tempo osservato: Sereno Sereno 23 33 1009 vento: Nord S 14.4
21 Maggio 2019 19:30 tempo osservato: Sereno Sereno 24 29 1009 vento: Nord S/SO 14.4
21 Maggio 2019 19:00 tempo osservato: Sereno Sereno 24 31 1009 vento: Nord S/SO 14.4
21 Maggio 2019 18:30 tempo osservato: Sereno Sereno 25 29 1009 vento: Nord S/SO 18
21 Maggio 2019 18:00 tempo osservato: Sereno Sereno 25 31 1009 vento: Nord S 14.4